Location: Pl�tzky
(52.0521°N, 11.8020°E)
Time: 09:50:52
(UTC+00:00)

N. Korean satellite - Pass Details

Date: 31 January 2021
Orbit: 451 x 502 km, 97.2° (Epoch: 07 March)

Event Time Altitude Azimuth Distance (km) Brightness Sun altitude
Rises 05:08:40 0° 10° (N) 2,503 10.2 -16.2°
Reaches altitude 10° 05:10:45 10° 6° (N) 1,616 9.2 -15.9°
Maximum altitude 05:14:09 57° 287° (WNW) 544 6.4 -15.4°
Drops below altitude 10° 05:17:30 10° 208° (SSW) 1,587 9.0 -14.9°
Sets 05:19:31 0° 205° (SSW) 2,453 10.0 -14.6°
